Weather History for K7L2 - March, 2014

Change the Weather History Date:

Wednesday, March 12, 2014

  Actual Average (KBIS) Record (KBIS)
Temperature  
Mean Temperature 36 °F 28 °F  
Max Temperature 51 °F 38 °F 75 °F (2007)
Min Temperature 21 °F 18 °F -25 °F (1956)
Degree Days  
Heating Degree Days 29 37  
Month to date heating degree days 473  
Since 1 July heating degree days 6904  
Cooling Degree Days 0 0  
Month to date cooling degree days 0  
Year to date cooling degree days 0  
Moisture  
Dew Point 29 °F    
Average Humidity 82    
Maximum Humidity 100    
Minimum Humidity 47    
Precipitation  
Precipitation 0.00 in 0.03 in 0.68 in (1929)
Month to date precipitation 0.30  
Year to date precipitation 1.24  
Snow  
Snow 0.00 in 0.30 in 2.60 in (1991)
Month to date snowfall 3.8  
Since 1 July snowfall 41.3  
Snow Depth -    
Sea Level Pressure  
Sea Level Pressure 30.01 in    
Wind  
Wind Speed 7 mph (West)    
Max Wind Speed 16 mph    
Max Gust Speed 20 mph    
Visibility 10 miles    
Events      
T = Trace of Precipitation, MM = Missing Value Source: NWS Daily Summary

Daily Weather History Graph

Daily Weather History Graph

Search for Another Location

Airport or City:

Trip Planner

Search our weather history database for the weather conditions in past years. The results will help you decide how hot, cold, wet, or windy it might be!

Date:

Astronomy

Mar. 12, 2014 Rise Set
Actual Time 7:59 AM CDT 7:42 PM CDT
Civil Twilight 7:29 AM CDT 8:12 PM CDT
Nautical Twilight 6:54 AM CDT 8:47 PM CDT
Astronomical Twilight 6:19 AM CDT 9:23 PM CDT
Moon 4:05 PM CDT (3/12) 5:42 AM CDT (3/12)
Length of Visible Light 12h 43m
Length of Day
11h 43m
Waxing Gibbous, 85% of the Moon is Illuminated
Mar 12
Waxing Gibbous
Mar 16
Full
Mar 23
Last Quarter
Mar 30
New
Apr 7
First Quarter

Hourly Weather History & Observations

Time (CDT) Temp. Windchill Dew Point Humidity Pressure Visibility Wind Dir Wind Speed Gust Speed Precip Events Conditions
12:15 AM 26.6 °F 22.6 °F 26.6 °F 100% 30.12 in 10.0 mi West 3.5 mph - N/A   Clear
12:35 AM 26.6 °F 22.6 °F 26.6 °F 100% 30.12 in 10.0 mi WSW 3.5 mph - N/A   Clear
12:55 AM 26.6 °F 21.2 °F 26.6 °F 100% 30.11 in 10.0 mi SW 4.6 mph - N/A   Partly Cloudy
1:15 AM 26.6 °F 18.2 °F 26.6 °F 100% 30.11 in 10.0 mi SW 8.1 mph - N/A   Scattered Clouds
1:35 AM 26.6 °F 21.2 °F 26.6 °F 100% 30.11 in 10.0 mi WSW 4.6 mph - N/A   Mostly Cloudy
1:55 AM 28.4 °F 21.2 °F 28.4 °F 100% 30.10 in 10.0 mi WSW 6.9 mph - N/A   Mostly Cloudy
2:15 AM 26.6 °F 19.1 °F 26.6 °F 100% 30.10 in 10.0 mi West 6.9 mph - N/A   Mostly Cloudy
2:35 AM 26.6 °F 20.0 °F 26.6 °F 100% 30.10 in 10.0 mi West 5.8 mph - N/A   Partly Cloudy
2:55 AM 26.6 °F 21.2 °F 26.6 °F 100% 30.10 in 10.0 mi West 4.6 mph - N/A   Clear
3:15 AM 24.8 °F 20.5 °F 24.8 °F 100% 30.10 in 10.0 mi West 3.5 mph - N/A   Clear
3:35 AM 24.8 °F 19.1 °F 24.8 °F 100% 30.09 in 10.0 mi West 4.6 mph - N/A   Clear
3:55 AM 26.6 °F 19.1 °F 26.6 °F 100% 30.09 in 10.0 mi WNW 6.9 mph - N/A   Clear
4:15 AM 26.6 °F 20.0 °F 26.6 °F 100% 30.08 in 10.0 mi WNW 5.8 mph - N/A   Clear
4:35 AM 26.6 °F 18.2 °F 26.6 °F 100% 30.08 in 10.0 mi WNW 8.1 mph - N/A   Clear
4:55 AM 26.6 °F 18.2 °F 26.6 °F 100% 30.08 in 10.0 mi West 8.1 mph - N/A   Clear
5:15 AM 26.6 °F 16.8 °F 26.6 °F 100% 30.09 in 10.0 mi WNW 10.4 mph - N/A   Clear
5:35 AM 26.6 °F 18.2 °F 26.6 °F 100% 30.08 in 10.0 mi WNW 8.1 mph - N/A   Clear
5:55 AM 26.6 °F 19.1 °F 26.6 °F 100% 30.09 in 10.0 mi WNW 6.9 mph - N/A   Clear
6:15 AM 24.8 °F 20.5 °F 24.8 °F 100% 30.09 in 10.0 mi NW 3.5 mph - N/A   Clear
6:35 AM 26.6 °F 21.2 °F 26.6 °F 100% 30.09 in 10.0 mi WNW 4.6 mph - N/A   Clear
6:55 AM 26.6 °F 22.6 °F 26.6 °F 100% 30.09 in 10.0 mi WNW 3.5 mph - N/A   Clear
7:15 AM 23.0 °F 17.0 °F 23.0 °F 100% 30.09 in 10.0 mi West 4.6 mph - N/A   Clear
7:35 AM 23.0 °F 17.0 °F 23.0 °F 100% 30.09 in 10.0 mi West 4.6 mph - N/A   Clear
7:55 AM 21.2 °F 13.6 °F 21.2 °F 100% 30.09 in 10.0 mi West 5.8 mph - N/A   Clear
8:15 AM 23.0 °F 18.4 °F 23.0 °F 100% 30.09 in 10.0 mi West 3.5 mph - N/A   Clear
8:35 AM 23.0 °F 18.4 °F 23.0 °F 100% 30.08 in 10.0 mi West 3.5 mph - N/A   Clear
8:55 AM 26.6 °F - 26.6 °F 100% 30.07 in 10.0 mi Calm Calm - N/A   Clear
9:15 AM 28.4 °F - 28.4 °F 100% 30.07 in 10.0 mi Calm Calm - N/A   Clear
9:35 AM 30.2 °F - 28.4 °F 93% 30.07 in 10.0 mi Calm Calm - N/A   Clear
9:55 AM 32.0 °F 27.5 °F 28.4 °F 87% 30.07 in 10.0 mi West 4.6 mph - N/A   Clear
10:15 AM 32.0 °F 27.5 °F 30.2 °F 93% 30.07 in 10.0 mi West 4.6 mph - N/A   Scattered Clouds
10:35 AM 32.0 °F 27.5 °F 28.4 °F 87% 30.06 in 10.0 mi WSW 4.6 mph - N/A   Partly Cloudy
10:55 AM 35.6 °F 31.7 °F 28.4 °F 75% 30.06 in 10.0 mi West 4.6 mph - N/A   Clear
11:15 AM 35.6 °F 30.7 °F 28.4 °F 75% 30.05 in 10.0 mi West 5.8 mph - N/A   Clear
11:35 AM 37.4 °F 32.1 °F 28.4 °F 70% 30.04 in 10.0 mi West 6.9 mph - N/A   Clear
11:55 AM 39.2 °F 35.0 °F 28.4 °F 65% 30.03 in 10.0 mi West 5.8 mph - N/A   Clear
12:15 PM 41.0 °F 34.7 °F 30.2 °F 65% 30.03 in 10.0 mi West 10.4 mph - N/A   Clear
12:35 PM 41.0 °F 35.8 °F 30.2 °F 65% 30.03 in 10.0 mi West 8.1 mph - N/A   Mostly Cloudy
12:55 PM 41.0 °F 34.3 °F 32.0 °F 70% 30.02 in 10.0 mi West 11.5 mph - N/A   Mostly Cloudy
1:15 PM 42.8 °F 36.6 °F 32.0 °F 66% 30.01 in 10.0 mi West 11.5 mph 19.6 mph N/A   Mostly Cloudy
1:35 PM 44.6 °F 37.8 °F 32.0 °F 61% 30.00 in 10.0 mi WNW 15.0 mph 19.6 mph N/A   Mostly Cloudy
1:55 PM 44.6 °F 37.8 °F 32.0 °F 61% 29.99 in 10.0 mi WNW 15.0 mph - N/A   Scattered Clouds
2:15 PM 46.4 °F 40.4 °F 32.0 °F 57% 29.98 in 10.0 mi WNW 13.8 mph 19.6 mph N/A   Partly Cloudy
2:35 PM 46.4 °F 40.7 °F 32.0 °F 57% 29.97 in 10.0 mi WNW 12.7 mph - N/A   Scattered Clouds
2:55 PM 48.2 °F - 32.0 °F 54% 29.96 in 10.0 mi WNW 16.1 mph - N/A   Overcast
3:15 PM 46.4 °F 40.4 °F 32.0 °F 57% 29.96 in 10.0 mi NW 13.8 mph - N/A   Overcast
3:35 PM 48.2 °F - 32.0 °F 54% 29.95 in 10.0 mi NW 11.5 mph - N/A   Mostly Cloudy
3:55 PM 48.2 °F - 32.0 °F 54% 29.94 in 10.0 mi NW 10.4 mph - N/A   Clear
4:15 PM 50.0 °F - 32.0 °F 50% 29.93 in 10.0 mi WNW 10.4 mph - N/A   Clear
4:35 PM 50.0 °F - 32.0 °F 50% 29.93 in 10.0 mi NW 11.5 mph - N/A   Clear
4:55 PM 50.0 °F - 32.0 °F 50% 29.93 in 10.0 mi NW 12.7 mph - N/A   Clear
5:15 PM 51.8 °F - 32.0 °F 47% 29.92 in 10.0 mi WNW 13.8 mph 17.3 mph N/A   Clear
5:35 PM 51.8 °F - 32.0 °F 47% 29.92 in 10.0 mi WNW 11.5 mph - N/A   Clear
5:55 PM 51.8 °F - 32.0 °F 47% 29.91 in 10.0 mi West 12.7 mph - N/A   Clear
6:15 PM 50.0 °F - 32.0 °F 50% 29.91 in 10.0 mi WNW 13.8 mph 19.6 mph N/A   Clear
6:35 PM 48.2 °F - 32.0 °F 54% 29.91 in 10.0 mi WNW 10.4 mph 18.4 mph N/A   Clear
6:55 PM 48.2 °F - 32.0 °F 54% 29.91 in 10.0 mi WNW 9.2 mph - N/A   Clear
7:15 PM 46.4 °F 41.9 °F 33.8 °F 62% 29.91 in 10.0 mi NW 9.2 mph - N/A   Clear
7:35 PM 42.8 °F 37.0 °F 33.8 °F 70% 29.92 in 10.0 mi NW 10.4 mph - N/A   Clear
7:55 PM 39.2 °F 34.2 °F 32.0 °F 75% 29.92 in 10.0 mi NW 6.9 mph - N/A   Clear
8:15 PM 39.2 °F 34.2 °F 32.0 °F 75% 29.93 in 10.0 mi West 6.9 mph - N/A   Clear
8:35 PM 39.2 °F 35.0 °F 32.0 °F 75% 29.92 in 10.0 mi WNW 5.8 mph - N/A   Clear
8:55 PM 37.4 °F 32.8 °F 32.0 °F 81% 29.92 in 10.0 mi West 5.8 mph - N/A   Clear
9:15 PM 35.6 °F 31.7 °F 32.0 °F 87% 29.92 in 10.0 mi West 4.6 mph - N/A   Clear
9:35 PM 35.6 °F 31.7 °F 32.0 °F 87% 29.92 in 10.0 mi West 4.6 mph - N/A   Clear
9:55 PM 32.0 °F 24.8 °F 32.0 °F 100% 29.92 in 10.0 mi WSW 8.1 mph - N/A   Clear
10:15 PM 32.0 °F 25.6 °F 32.0 °F 100% 29.91 in 10.0 mi WSW 6.9 mph - N/A   Clear
10:35 PM 32.0 °F 24.8 °F 32.0 °F 100% 29.91 in 10.0 mi WSW 8.1 mph - N/A   Clear
10:55 PM 32.0 °F 25.6 °F 32.0 °F 100% 29.91 in 10.0 mi WSW 6.9 mph - N/A   Clear
11:15 PM 32.0 °F 26.4 °F 32.0 °F 100% 29.90 in 10.0 mi WSW 5.8 mph - N/A   Clear
11:35 PM 32.0 °F 24.2 °F 32.0 °F 100% 29.90 in 10.0 mi SW 9.2 mph - N/A   Clear
11:55 PM 32.0 °F 24.8 °F 32.0 °F 100% 29.89 in 10.0 mi SW 8.1 mph - N/A   Clear